CW3224 Weather Reports


time (UTC)temp
C
wind
direction
speed
KPH
gust
KPH
rain 1hr
cm
rain 24hr
cm
rain mn
cm
humidity
%
barometer
mb
20260502170303 12 149 6.4 16.1 0.00 0.48 0.48 76 1010.4
20260502163305 10 148 3.2 6.4 0.00 0.48 0.48 84 1010.7
20260502162257 10 150 1.6 4.8 0.00 0.48 0.48 85 1011.2
20260502161257 10 204 4.8 9.7 0.00 0.48 0.48 85 1011.6
20260502160255 10 225 3.2 6.4 0.00 0.48 0.48 86 1011.6
20260502152246 8 154 0.0 4.8 0.00 0.48 0.48 88 1011.3
20260502151245 8 164 1.6 4.8 0.00 0.48 0.48 88 1011.6
20260502150243 8 165 1.6 4.8 0.00 0.48 0.48 89 1011.6
20260502130232 6 52 1.6 4.8 0.28 0.48 0.48 91 1012.0
20260502123653 6 198 0.0 0.0 0.18 0.33 0.36 91 1012.5
20260502122218 6 198 0.0 0.0 0.20 0.30 0.30 91 1012.3
20260502121217 6 198 0.0 0.0 0.20 0.25 0.25 90 1012.3
20260502120654 6 198 0.0 0.0 0.15 0.20 0.20 90 1012.3
20260502115217 6 198 0.0 0.0 0.15 0.20 0.20 90 1012.2
20260502114654 6 198 0.0 0.0 0.15 0.20 0.20 90 1012.8
20260502113211 6 198 0.0 0.0 0.10 0.15 0.15 90 1012.8
20260502112211 6 198 0.0 0.0 0.05 0.10 0.10 90 1012.3
20260502111212 6 198 0.0 0.0 0.00 0.05 0.05 90 1011.3
20260502110208 6 198 0.0 0.0 0.00 0.05 0.05 89 1011.3
20260502105210 6 198 0.0 0.0 0.03 0.05 0.05 89 1011.3
20260502104208 6 198 0.0 0.0 0.03 0.05 0.05 89 1011.3
20260502103209 6 198 0.0 0.0 0.05 0.05 0.05 88 1011.3
20260502102649 6 198 0.0 0.0 0.05 0.05 0.05 88 1011.3
20260502101209 6 198 0.0 0.0 0.05 0.05 0.05 88 1011.2
20260502100209 6 198 0.0 0.0 0.05 0.05 0.05 87 1011.2
20260502091208 6 181 0.0 0.0 0.00 0.00 0.00 84 1010.7
20260502090206 6 181 0.0 0.0 0.00 0.00 0.00 84 1010.7
20260502071137 6 182 0.0 4.8 0.00 0.00 0.00 80 1011.2
20260502070138 6 182 3.2 9.7 0.00 0.00 0.00 80 1011.2
20260502065136 6 27 3.2 11.3 0.00 0.00 0.00 81 1011.3
20260502064120 6 183 0.0 4.8 0.00 0.00 0.00 81 1011.3
20260502063122 6 34 0.0 3.2 0.00 0.00 0.00 80 1011.3
20260502062121 6 33 0.0 3.2 0.00 0.00 0.00 80 1010.8
20260502061557 6 33 1.6 3.2 0.00 0.00 0.00 79 1011.0
20260502060121 6 33 0.0 1.6 0.00 0.00 0.00 79 1011.0
20260502055122 6 33 0.0 0.0 0.00 0.00 0.00 79 1011.2
20260502054119 6 33 0.0 1.6 0.00 0.00 0.00 78 1011.1
20260502053550 6 33 0.0 0.0 0.00 0.00 0.00 78 1011.1
20260502052105 6 33 0.0 0.0 0.00 0.00 0.00 77 1011.2
20260502051104 6 33 0.0 0.0 0.00 0.00 0.00 76 1011.2
20260502050106 6 33 1.6 8.0 0.00 0.00 0.00 76 1011.2
20260502045553 6 33 1.6 8.0 0.00 0.00 0.00 76 1011.0
20260502044055 6 260 0.0 0.0 0.00 0.00 0.00 75 1011.3
20260502043054 6 260 0.0 3.2 0.00 0.00 0.00 76 1011.3
20260502042054 6 260 0.0 0.0 0.00 0.00 0.00 75 1011.3
20260502041054 6 260 0.0 0.0 0.00 0.00 0.00 75 1011.3
20260502040051 6 260 0.0 0.0 0.00 0.00 0.00 75 1011.3
20260502035051 6 260 0.0 0.0 0.00 0.00 0.00 75 1011.2
20260502034052 6 260 0.0 0.0 0.00 0.00 0.00 75 1011.2
20260502033051 6 260 0.0 0.0 0.00 0.00 0.00 73 1011.2
20260502032051 6 260 0.0 0.0 0.00 0.00 0.00 74 1011.1
20260502031043 6 260 0.0 0.0 0.00 0.00 0.00 73 1010.8
20260502030044 6 260 0.0 0.0 0.00 0.00 0.00 72 1010.8
20260502025043 6 260 0.0 0.0 0.00 0.00 0.00 72 1010.9
20260502024043 6 260 0.0 3.2 0.00 0.00 0.00 70 1010.9
20260502023041 6 260 0.0 3.2 0.00 0.00 0.00 70 1010.9
20260502022040 7 266 0.0 0.0 0.00 0.00 0.00 68 1011.1
20260502021040 7 266 1.6 6.4 0.00 0.00 0.00 69 1011.1
20260502020041 7 203 0.0 0.0 0.00 0.00 0.00 66 1011.1
20260502015037 7 203 0.0 0.0 0.00 0.00 0.00 65 1010.9
20260502014039 7 203 0.0 0.0 0.00 0.00 0.00 64 1010.9
20260502013508 8 203 0.0 0.0 0.00 0.00 0.00 63 1010.9
20260502012035 8 203 0.0 0.0 0.00 0.00 0.00 61 1010.8
20260502011033 9 203 0.0 0.0 0.00 0.00 0.00 59 1010.7
20260502010034 9 203 0.0 0.0 0.00 0.00 0.00 57 1010.5
20260502005031 10 203 0.0 0.0 0.00 0.00 0.00 56 1010.5
20260502004032 10 203 0.0 0.0 0.00 0.00 0.00 55 1010.3
20260502003958 11 203 0.0 0.0 0.00 0.00 0.00 54 1010.3
20260502002506 11 203 0.0 0.0 0.00 0.00 0.00 53 1010.2
20260502001031 11 203 0.0 0.0 0.00 0.00 0.00 49 1009.7
20260502000033 12 203 0.0 0.0 0.00 0.00 0.00 47 1009.7
20260501235456 12 203 0.0 0.0 0.00 0.00 0.00 46 1009.7
20260501234021 12 203 0.0 1.6 0.00 0.00 0.00 45 1009.4
20260501233021 13 203 0.0 4.8 0.00 0.00 0.00 44 1009.4
20260501232501 13 212 0.0 0.0 0.00 0.00 0.00 44 1009.2
20260501231021 13 212 0.0 1.6 0.00 0.00 0.00 42 1009.1
20260501230019 13 212 0.0 3.2 0.00 0.00 0.00 42 1009.1
20260501225019 13 216 1.6 4.8 0.00 0.00 0.00 40 1009.1
20260501224021 14 216 1.6 4.8 0.00 0.00 0.00 41 1009.0
20260501223458 14 291 1.6 6.4 0.00 0.00 0.00 39 1009.0
20260501222020 14 215 1.6 4.8 0.00 0.00 0.00 40 1008.8
20260501221020 15 71 3.2 12.9 0.00 0.00 0.00 40 1008.7
20260501220018 15 337 3.2 11.3 0.00 0.00 0.00 38 1008.7
20260501215018 15 120 3.2 8.0 0.00 0.00 0.00 37 1008.7
20260501214017 15 23 1.6 4.8 0.00 0.00 0.00 39 1008.6
20260501213018 15 301 3.2 9.7 0.00 0.00 0.00 38 1008.6
20260501212502 15 301 4.8 11.3 0.00 0.00 0.00 38 1008.6
20260501211015 15 301 3.2 11.3 0.00 0.00 0.00 38 1008.4
20260501210015 15 301 1.6 8.0 0.00 0.00 0.00 38 1008.1
20260501205014 15 301 4.8 11.3 0.00 0.00 0.00 39 1008.1
20260501204016 15 177 3.2 14.5 0.00 0.00 0.00 37 1008.2
20260501203015 16 301 4.8 11.3 0.00 0.00 0.00 37 1008.2
20260501202016 16 232 4.8 12.9 0.00 0.00 0.00 38 1008.2
20260501201009 16 98 4.8 16.1 0.00 0.00 0.00 39 1008.1
20260501200443 16 260 3.2 9.7 0.00 0.00 0.00 38 1008.2
20260501195011 16 301 3.2 9.7 0.00 0.00 0.00 39 1008.2
20260501194456 16 301 4.8 16.1 0.00 0.00 0.00 38 1008.2
20260501193005 16 340 4.8 14.5 0.00 0.00 0.00 38 1008.5
20260501192004 16 241 4.8 14.5 0.00 0.00 0.00 39 1008.5
20260501191003 16 301 4.8 9.7 0.00 0.00 0.00 42 1008.6
20260501190001 16 264 3.2 8.0 0.00 0.00 0.00 39 1008.6
20260501185000 16 233 3.2 9.7 0.00 0.00 0.00 41 1008.6
20260501183949 17 274 3.2 9.7 0.00 0.00 0.00 37 1008.7
20260501182947 17 283 4.8 12.9 0.00 0.00 0.00 43 1008.9
20260501181946 16 301 3.2 9.7 0.00 0.03 0.00 42 1008.9
20260501180947 17 301 4.8 14.5 0.00 0.03 0.00 41 1008.9
20260501175947 16 251 3.2 9.7 0.00 0.03 0.00 42 1008.9
20260501174947 16 46 3.2 12.9 0.00 0.03 0.00 45 1008.9
20260501173946 16 289 3.2 11.3 0.00 0.03 0.00 44 1009.0